BEIDOU G1 1 36287U 10001A 10039.47521557 -.00000204 00000-0 10000-3 0 236 2 36287 1.8153 318.9968 0022506 230.0868 278.0505 0.99958038 314 CZ-3C R/B 1 36288U 10001B 10039.90059199 .00000486 00000-0 36066-3 0 133 2 36288 20.4214 348.5247 7251588 196.0365 115.6479 2.29762572 545 RADUGA-1M 2 1 36358U 10002A 10039.70126478 -.00000252 00000-0 10000-3 0 160 2 36358 0.0328 274.9956 0008648 147.4059 50.9043 1.00708804 120 BREEZE-M R/B 1 36359U 10002B 10039.06609410 -.00000113 00000-0 10000-3 0 45 2 36359 0.2402 203.4715 0175129 333.3615 183.2603 1.04037913 121 BREEZE-M DEB [TANK] 1 36360U 10002C 10039.55250520 -.00000278 00000-0 00000+0 0 109 2 36360 46.4891 137.1640 7211856 3.0905 359.5888 2.28305131 260 PROGRESS-M 04M 1 36361U 10003A 10038.54923199 .00017998 00000-0 11804-3 0 157 2 36361 51.6452 176.2902 0010708 295.7161 114.9449 15.75775743643059 STS 130 1 36394U 10004A 10040.58390892 -.00206850 00000-0 -96867-3 0 60 2 36394 51.6398 165.8368 0034941 319.7913 110.9270 15.81905325 188